Hill City, KS

11:52 AM CDT on September 28, 2016 (GMT -0500)
Hill City Municipal

Weather History for KHLC - February, 2014

Change the Weather History Date:

Sunday, February 23, 2014

  Actual Average Record
Temperature  
Mean Temperature 27 °F 35 °F  
Max Temperature 30 °F 49 °F 81 °F (1918)
Min Temperature 23 °F 22 °F -5 °F (2003)
Degree Days  
Heating Degree Days 38    
Moisture  
Dew Point 19 °F    
Average Humidity 75    
Maximum Humidity 85    
Minimum Humidity 63    
Precipitation  
Precipitation 0.00 in 0.02 in 0.24 in (1997)
Month to date precipitation 0.25 0.42  
Year to date precipitation 0.35 0.87  
Sea Level Pressure  
Sea Level Pressure 30.27 in    
Wind  
Wind Speed 13 mph (ENE)    
Max Wind Speed 20 mph    
Max Gust Speed -    
Visibility 10 miles    
Events      
T = Trace of Precipitation, MM = Missing Value Source: NWS Daily Summary

Daily Weather History Graph

Daily Weather History Graph

Search for Another Location

Airport or City:

Trip Planner

Search our weather history database for the weather conditions in past years. The results will help you decide how hot, cold, wet, or windy it might be!

Date:

Astronomy

Feb. 23, 2014 Rise Set
Actual Time 7:20 AM CST 6:25 PM CST
Civil Twilight 6:53 AM CST 6:52 PM CST
Nautical Twilight 6:22 AM CST 7:23 PM CST
Astronomical Twilight 5:51 AM CST 7:54 PM CST
Moon 2:19 AM CST (2/23) 12:30 PM CST (2/23)
Length of Visible Light 11h 58m
Length of Day
11h 04m
Last Quarter, 38% of the Moon is Illuminated
Feb 23
Last Quarter
Mar 1
New
Mar 8
First Quarter
Mar 16
Full
Mar 23
Last Quarter

Hourly Weather History & Observations

Time (CST) Temp. Windchill Dew Point Humidity Pressure Visibility Wind Dir Wind Speed Gust Speed Precip Events Conditions
12:44 AM 30.0 °F 18.7 °F 24.1 °F 79% 30.12 in 10.0 mi NE 16.1 mph - N/A   Mostly Cloudy
12:53 AM 30.0 °F 19.5 °F 24.1 °F 79% 30.16 in 10.0 mi ENE 13.8 mph - N/A   Overcast
1:53 AM 28.9 °F 16.9 °F 24.1 °F 82% 30.18 in 10.0 mi NE 17.3 mph - N/A   Overcast
2:11 AM 28.0 °F 15.7 °F 24.1 °F 85% 30.15 in 10.0 mi NE 17.3 mph - N/A   Overcast
2:34 AM 28.0 °F 14.9 °F 23.0 °F 81% 30.15 in 10.0 mi NE 19.6 mph - N/A   Overcast
2:53 AM 27.0 °F 16.1 °F 21.9 °F 81% 30.19 in 10.0 mi ENE 12.7 mph - N/A   Overcast
3:43 AM 26.1 °F 13.1 °F 21.0 °F 81% 30.15 in 10.0 mi ENE 17.3 mph - N/A   Overcast
3:53 AM 26.1 °F 13.6 °F 21.9 °F 84% 30.19 in 10.0 mi NE 16.1 mph - N/A   Overcast
4:30 AM 26.1 °F 15.0 °F 21.0 °F 81% 30.16 in 10.0 mi ENE 12.7 mph - N/A   Overcast
4:53 AM 26.1 °F 15.0 °F 21.9 °F 84% 30.21 in 10.0 mi NE 12.7 mph - N/A   Overcast
5:03 AM 25.0 °F 15.5 °F 21.0 °F 85% 30.17 in 10.0 mi NE 9.2 mph - N/A   Overcast
5:12 AM 25.0 °F 13.1 °F 21.0 °F 85% 30.17 in 10.0 mi NE 13.8 mph - N/A   Overcast
5:48 AM 24.8 °F 14.0 °F 19.4 °F 80% 30.19 in 10.0 mi ENE 11.5 mph - N/A   Overcast
5:53 AM 25.0 °F 13.6 °F 19.9 °F 81% 30.24 in 10.0 mi ENE 12.7 mph - N/A   Overcast
6:10 AM 24.1 °F 13.7 °F 19.0 °F 81% 30.20 in 10.0 mi ENE 10.4 mph - N/A   Overcast
6:53 AM 24.1 °F 13.7 °F 19.0 °F 81% 30.29 in 10.0 mi NE 10.4 mph - N/A   Overcast
7:09 AM 24.1 °F 12.5 °F 19.0 °F 81% 30.23 in 10.0 mi NE 12.7 mph - N/A   Overcast
7:53 AM 24.1 °F 14.4 °F 19.0 °F 81% 30.32 in 10.0 mi NE 9.2 mph - N/A   Overcast
8:06 AM 24.1 °F 13.1 °F 19.0 °F 81% 30.27 in 10.0 mi NE 11.5 mph - N/A   Overcast
8:43 AM 24.1 °F 13.1 °F 19.0 °F 81% 30.29 in 10.0 mi NNE 11.5 mph - N/A   Overcast
8:53 AM 24.1 °F 13.1 °F 19.0 °F 81% 30.36 in 10.0 mi NNE 11.5 mph - N/A   Overcast
9:27 AM 24.1 °F 11.5 °F 17.1 °F 75% 30.30 in 10.0 mi NE 15.0 mph - N/A   Overcast
9:53 AM 24.1 °F 12.0 °F 18.0 °F 77% 30.37 in 10.0 mi NE 13.8 mph - N/A   Overcast
10:53 AM 25.0 °F 14.8 °F 18.0 °F 75% 30.37 in 10.0 mi ENE 10.4 mph - N/A   Overcast
11:08 AM 26.1 °F 16.8 °F 18.0 °F 71% 30.31 in 10.0 mi ENE 9.2 mph - N/A   Overcast
11:17 AM 26.1 °F 16.8 °F 18.0 °F 71% 30.31 in 10.0 mi NE 9.2 mph - N/A   Overcast
11:53 AM 26.1 °F 15.6 °F 17.1 °F 69% 30.38 in 10.0 mi ENE 11.5 mph - N/A   Overcast
12:53 PM 26.1 °F 17.6 °F 17.1 °F 69% 30.37 in 10.0 mi East 8.1 mph - N/A   Overcast
1:53 PM 27.0 °F 18.7 °F 18.0 °F 69% 30.35 in 10.0 mi East 8.1 mph - N/A   Overcast
2:29 PM 28.0 °F 18.6 °F 17.1 °F 63% 30.26 in 10.0 mi East 10.4 mph - N/A   Overcast
2:50 PM 28.4 °F 21.2 °F 17.6 °F 64% 30.27 in 10.0 mi ENE 6.9 mph - N/A   Overcast
2:53 PM 27.0 °F 16.1 °F 18.0 °F 69% 30.34 in 10.0 mi East 12.7 mph - N/A   Overcast
3:53 PM 27.0 °F 18.0 °F 17.1 °F 66% 30.34 in 10.0 mi ENE 9.2 mph - N/A   Overcast
4:53 PM 26.1 °F 16.2 °F 17.1 °F 69% 30.34 in 10.0 mi ENE 10.4 mph - N/A   Overcast
5:25 PM 25.0 °F 14.2 °F 16.0 °F 69% 30.25 in 10.0 mi East 11.5 mph - N/A   Overcast
5:53 PM 25.0 °F 15.5 °F 16.0 °F 69% 30.34 in 10.0 mi East 9.2 mph - N/A   Overcast
6:53 PM 24.1 °F 14.4 °F 14.0 °F 65% 30.36 in 10.0 mi East 9.2 mph - N/A   Overcast
7:53 PM 24.1 °F 15.2 °F 15.1 °F 69% 30.37 in 10.0 mi East 8.1 mph - N/A   Overcast
8:53 PM 24.1 °F 17.0 °F 14.0 °F 65% 30.38 in 10.0 mi East 5.8 mph - N/A   Overcast
9:53 PM 23.0 °F 13.9 °F 14.0 °F 68% 30.38 in 10.0 mi ENE 8.1 mph - N/A   Overcast
10:53 PM 23.0 °F 13.1 °F 14.0 °F 68% 30.37 in 10.0 mi East 9.2 mph - N/A   Overcast
11:13 PM 23.0 °F 13.9 °F 14.0 °F 68% 30.27 in 10.0 mi East 8.1 mph - N/A   Overcast
11:34 PM 23.0 °F 14.7 °F 14.0 °F 68% 30.28 in 10.0 mi East 6.9 mph - N/A   Overcast
11:53 PM 23.0 °F 14.7 °F 14.0 °F 68% 30.37 in 10.0 mi East 6.9 mph - N/A   Overcast